Home   Weather   Sarasota   Past weeks

Flag for USA Past Weather in Sarasota, Florida, USA — Yesterday and Last 2 Weeks

Now
80 °F

Sunny.


Feels Like: 83 °F
Forecast: 77 / 90 °F
Wind: 16 mph from Southeast

Location: Sarasota-Bradenton International Airport

Current Time: Apr 30, 2017 at 11:15:05 am

Latest Report: Apr 30, 2017 at 9:53 am


Visibility: 10 mi

Pressure: 30.06 "Hg

Humidity: 67%

Dew Point: 68 °F

Location of SarasotaLocation

Past Weather in Sarasota — Graph

°F

Sarasota Temperature Yesterday

Maximum temperature yesterday: 94 °F (at 1:53 pm)
Minimum temperature yesterday: 73 °F (at 4:20 am)
Average temperature yesterday: 81 °F

High & Low Weather Summary for the Past Weeks

 TemperatureHumidityPressure
High94 °F (Apr 29, 1:53 pm)94% (Apr 27, 8:53 am)30.21 "Hg (Apr 27, 8:53 am)
Low63 °F (Apr 16, 6:53 am)24% (Apr 19, 4:53 pm)29.72 "Hg (Apr 24, 5:53 am)
Average76 °F67%29.98 "Hg
* Reported Apr 15 9:53 am — Apr 30 9:53 am, Sarasota, Weather by CustomWeather, © 2017

Note: Actual official high and low records may vary slightly from our data, if they occured in-between our weather recording intervals... More about our weather records

Advertising

Sarasota Weather History for the Previous 24 Hours

Scroll right to see more
 ConditionsComfort  
Time TempWeatherWind HumidityBarometerVisibility
9:53 am
Sun, Apr 30
80 °FSunny.16 mph67%30.06 "Hg10 mi
8:53 am77 °FSunny.15 mph77%30.07 "Hg10 mi
7:53 am74 °FSunny.9 mph85%30.09 "Hg10 mi
6:53 am74 °FScattered clouds.10 mph85%30.07 "Hg10 mi
5:53 am74 °FPassing clouds.13 mph88%30.06 "Hg10 mi
4:53 am74 °FClear.13 mph88%30.05 "Hg10 mi
3:53 am74 °FClear.14 mph85%30.04 "Hg10 mi
2:53 am74 °FClear.15 mph85%30.04 "Hg10 mi
1:53 am75 °FClear.15 mph82%30.06 "Hg10 mi
12:53 am76 °FClear.14 mph77%30.07 "Hg10 mi
11:53 pm
Sat, Apr 29
77 °FClear.15 mph69%30.08 "Hg10 mi
10:53 pm79 °FClear.16 mph60%30.07 "Hg10 mi
9:53 pm81 °FClear.16 mph51%30.06 "Hg10 mi
8:53 pm83 °FClear.15 mph48%30.03 "Hg10 mi
7:53 pm82 °FSunny.6 mph65%30.03 "Hg10 mi
6:53 pm84 °FPassing clouds.13 mph59%30.01 "Hg10 mi
5:53 pm85 °FScattered clouds.13 mph57%30.01 "Hg10 mi
4:53 pm85 °FBroken clouds.15 mph59%30.02 "Hg10 mi
3:53 pm84 °FPassing clouds.15 mph61%30.03 "Hg10 mi
3:06 pm86 °FPartly sunny.8 mph55%30.05 "Hg10 mi
1:53 pm94 °FScattered clouds.14 mph32%30.06 "Hg10 mi
12:53 pm92 °FPassing clouds.15 mph37%30.08 "Hg10 mi
11:53 am91 °FPassing clouds.14 mph41%30.09 "Hg10 mi
Weather by CustomWeather, © 2017

See weather overviewHow to use our weather pages